Location: Cantaing
(50.1487°N, 3.1675°E)
Time: 20:02:37
(UTC+00:00)

Cosmos 1953 - Pass Details

Date: 14 January 2026
Orbit: 474 x 489 km, 82.5° (Epoch: 13 February)

Event Time Altitude Azimuth Distance (km) Brightness Sun altitude
Rises 06:37:18 0° 178° (S) 2,532 6.0 -9.9°
Reaches altitude 10° 06:39:24 10° 174° (S) 1,661 5.2 -9.6°
Maximum altitude 06:42:57 56° 96° (E) 584 2.9 -9.1°
Drops below altitude 10° 06:46:34 10° 18° (NNE) 1,687 4.8 -8.6°
Sets 06:48:43 0° 14° (NNE) 2,576 5.6 -8.2°
